Regional Weather Roundup
Issued by NWS

Home | Current Version | Previous Version | Text Only | Print | Product List | Glossary On
Versions: 1 2 3 4 5 6 7 8 9 10 11 12 13 14 15 16 17 18 19 20 21 22 23 24 25 26 27 28 29 30 31 32 33 34 35 36 37 38 39 40 41 42 43 44 45 46 47 48 49 50
000
ASCA42 TJSJ 130210
RWRPR
PUERTO RICO/U.S. VIRGIN ISLANDS HOURLY WEATHER ROUNDUP
NATIONAL WEATHER SERVICE SAN JUAN PR
1000 PM AST FRI FEB 12 2016

PRZ001-004-130300-
PUERTO RICO

CITY           SKY/WX    TMP DP  RH WIND       PRES   REMARKS
SAN JUAN LMM   PTCLDY    77  70  78 E10       30.08S
AGUADILLA      CLEAR     73  70  88 E9        30.09R
CEIBA          PTCLDY    75  70  83 E7        30.11R
$$

PRZ006-007-130300-
U.S. VIRGIN ISLANDS

CITY           SKY/WX    TMP DP  RH WIND       PRES   REMARKS
CHARLOTTE AMA  MOCLDY    79  68  69 E7        30.08R
CHRISTIANSTED  PTCLDY    75  68  78 NE8       30.09R
$$

HOURLY WEATHER ROUNDUP FOR THE NEWS MEDIA

CITY           SKY/WX    TMP DP  RH WIND       PRES   REMARKS
ORLANDO        CLEAR     64  53  67 W8        30.20S
NEW YORK       FLURRIES  23  10  57 W14       29.98F WCI  11
NEWARK         CLOUDY    23   7  50 SW10      29.98F WCI  12
CHICAGO        PTCLDY    13  -6  42 NW18G29   30.35R WCI  -4
HARTFORD       CLOUDY    22  11  62 CALM      29.95F
BOSTON         CLOUDY    22   5  48 SW12      29.96F WCI  10
DALLAS         CLEAR     60  38  43 NE3       30.31R
LOS ANGELES    PTCLDY    63  53  70 W7        30.05S
WASHINGTON DC  CLOUDY    27  10  49 W6        30.00R WCI  20


USA.gov is the U.S. government's official web portal to all federal, state and local government web resources and services.